Previsão horária em Abay

Hoje, 27 Janeiro, Quarta-feira

Tempo Temperatura Precipitação Vento Pressão Humidade
00:00 -11°C° 0 mm 0 m/s 724 mmHg 94%
01:00 -11°C° 0 mm 0 m/s 724 mmHg 94%
02:00 -11°C° 0 mm 0 m/s 724 mmHg 93%
03:00 -11°C° 0 mm 0 m/s 724 mmHg 92%
04:00 -11°C° 0 mm 0 m/s 724 mmHg 91%
05:00 -11°C° 0 mm 0 m/s 724 mmHg 91%
06:00 -11°C° 0 mm 0 m/s 724 mmHg 90%
07:00 -11°C° 0 mm 0 m/s 724 mmHg 89%
08:00 -12°C° 0 mm 1 m/s 724 mmHg 89%
09:00 -10°C° 0 mm 1 m/s 724 mmHg 86%
10:00 -9°C° 0 mm 0 m/s 724 mmHg 83%
11:00 -7°C° 0 mm 1 m/s 724 mmHg 80%
12:00 -6°C° 0 mm 1 m/s 724 mmHg 79%
13:00 -4°C° 0 mm 1 m/s 724 mmHg 77%
14:00 -3°C° 0 mm 1 m/s 724 mmHg 75%
15:00 -4°C° 0 mm 1 m/s 724 mmHg 80%
16:00 -6°C° 0 mm 1 m/s 724 mmHg 85%
17:00 -7°C° 0 mm 1 m/s 724 mmHg 89%
18:00 -8°C° 0 mm 1 m/s 724 mmHg 90%
19:00 -9°C° 0 mm 1 m/s 725 mmHg 91%
20:00 -10°C° 0 mm 0 m/s 725 mmHg 92%
21:00 -10°C° 0 mm 0 m/s 725 mmHg 92%
22:00 -10°C° 0 mm 0 m/s 724 mmHg 93%
23:00 -10°C° 0 mm 0 m/s 724 mmHg 94%

Amanhã, 28 Janeiro, Quinta-feira

Tempo Temperatura Precipitação Vento Pressão Humidade
00:00 -11°C° 0 mm 0 m/s 724 mmHg 93%
01:00 -11°C° 0 mm 0 m/s 724 mmHg 93%
02:00 -11°C° 0 mm 0 m/s 724 mmHg 93%
03:00 -11°C° 0 mm 0 m/s 724 mmHg 93%
04:00 -11°C° 0 mm 0 m/s 724 mmHg 92%
05:00 -11°C° 0 mm 0 m/s 724 mmHg 92%
06:00 -11°C° 0 mm 0 m/s 724 mmHg 91%
07:00 -11°C° 0 mm 0 m/s 724 mmHg 89%
08:00 -11°C° 0 mm 0 m/s 724 mmHg 88%
09:00 -10°C° 0 mm 1 m/s 724 mmHg 84%
10:00 -8°C° 0 mm 1 m/s 724 mmHg 80%
11:00 -6°C° 0 mm 1 m/s 724 mmHg 76%
12:00 -6°C° 0 mm 1 m/s 724 mmHg 76%
13:00 -4°C° 0 mm 1 m/s 724 mmHg 75%
14:00 -3°C° 0 mm 1 m/s 724 mmHg 74%
15:00 -4°C° 0 mm 1 m/s 724 mmHg 79%
16:00 -6°C° 0 mm 1 m/s 724 mmHg 83%
17:00 -7°C° 0 mm 1 m/s 724 mmHg 87%
18:00 -7°C° 0 mm 1 m/s 724 mmHg 88%
19:00 -8°C° 0 mm 1 m/s 724 mmHg 89%
20:00 -9°C° 0 mm 0 m/s 724 mmHg 90%
21:00 -9°C° 0 mm 0 m/s 724 mmHg 90%
22:00 -9°C° 0 mm 0 m/s 724 mmHg 89%
23:00 -10°C° 0 mm 0 m/s 723 mmHg 89%

Depois de amanhã, 29 Janeiro, Sexta-feira

Tempo Temperatura Precipitação Vento Pressão Humidade
00:00 -10°C° 0 mm 0 m/s 723 mmHg 89%
01:00 -10°C° 0 mm 0 m/s 723 mmHg 88%
02:00 -10°C° 0 mm 0 m/s 723 mmHg 88%
03:00 -10°C° 0 mm 0 m/s 723 mmHg 86%
04:00 -10°C° 0 mm 1 m/s 723 mmHg 84%
05:00 -10°C° 0 mm 1 m/s 722 mmHg 82%
06:00 -10°C° 0 mm 1 m/s 723 mmHg 80%
07:00 -10°C° 0 mm 1 m/s 723 mmHg 78%
08:00 -10°C° 0 mm 1 m/s 723 mmHg 76%
09:00 -9°C° 0 mm 1 m/s 723 mmHg 72%
10:00 -7°C° 0 mm 1 m/s 722 mmHg 69%
11:00 -4°C° 0 mm 1 m/s 722 mmHg 65%
12:00 -3°C° 0 mm 1 m/s 722 mmHg 67%
13:00 -2°C° 0 mm 1 m/s 722 mmHg 68%
14:00 -3°C° 0 mm 2 m/s 722 mmHg 69%
15:00 -2°C° 0 mm 1 m/s 722 mmHg 74%
16:00 -3°C° 0 mm 1 m/s 721 mmHg 80%
17:00 -4°C° 0 mm 1 m/s 721 mmHg 85%
18:00 -6°C° 0 mm 1 m/s 721 mmHg 85%
19:00 -7°C° 0 mm 0 m/s 721 mmHg 84%
20:00 -7°C° 0 mm 0 m/s 721 mmHg 84%
21:00 -7°C° 0 mm 1 m/s 721 mmHg 82%
22:00 -7°C° 0 mm 1 m/s 721 mmHg 79%
23:00 -7°C° 0 mm 1 m/s 721 mmHg 77%

30 Janeiro, Sábado

Tempo Temperatura Precipitação Vento Pressão Humidade
00:00 -7°C° 0 mm 1 m/s 720 mmHg 74%
01:00 -8°C° 0 mm 1 m/s 720 mmHg 71%
02:00 -8°C° 0 mm 1 m/s 720 mmHg 68%
03:00 -8°C° 0 mm 1 m/s 720 mmHg 66%
04:00 -8°C° 0 mm 1 m/s 719 mmHg 63%
05:00 -8°C° 0 mm 1 m/s 719 mmHg 61%
06:00 -7°C° 0 mm 1 m/s 719 mmHg 57%
07:00 -7°C° 0 mm 1 m/s 719 mmHg 52%
08:00 -6°C° 0 mm 1 m/s 719 mmHg 48%
09:00 -3°C° 0 mm 1 m/s 719 mmHg 50%
10:00 -1°C° 0 mm 1 m/s 719 mmHg 52%
11:00 +2°C° 0 mm 1 m/s 719 mmHg 54%
12:00 +2°C° 0 mm 1 m/s 718 mmHg 59%
13:00 +3°C° 0 mm 1 m/s 718 mmHg 64%
14:00 +4°C° 0 mm 1 m/s 717 mmHg 69%
15:00 +3°C° 0 mm 1 m/s 717 mmHg 68%
16:00 +2°C° 0 mm 1 m/s 717 mmHg 67%
17:00 +1°C° 0 mm 1 m/s 716 mmHg 65%
18:00 +1°C° 0 mm 1 m/s 716 mmHg 62%
19:00 0°C° 0 mm 1 m/s 716 mmHg 59%
20:00 0°C° 0 mm 1 m/s 716 mmHg 56%
21:00 -1°C° 0 mm 2 m/s 716 mmHg 51%
22:00 +1°C° 0 mm 2 m/s 716 mmHg 46%
23:00 +1°C° 0 mm 2 m/s 716 mmHg 41%

31 Janeiro, Domingo

Tempo Temperatura Precipitação Vento Pressão Humidade
00:00 +1°C° 0 mm 3 m/s 716 mmHg 40%
01:00 +1°C° 0 mm 3 m/s 715 mmHg 38%
02:00 +1°C° 0 mm 3 m/s 715 mmHg 37%
03:00 +1°C° 0 mm 3 m/s 715 mmHg 37%
04:00 +2°C° 0 mm 2 m/s 714 mmHg 37%
05:00 +2°C° 0 mm 1 m/s 714 mmHg 38%
06:00 +2°C° 0 mm 2 m/s 714 mmHg 38%
07:00 +3°C° 0 mm 2 m/s 714 mmHg 38%
08:00 +2°C° 0 mm 3 m/s 714 mmHg 38%
09:00 +4°C° 0 mm 3 m/s 713 mmHg 43%
10:00 +5°C° 0 mm 3 m/s 713 mmHg 48%
11:00 +7°C° 0 mm 3 m/s 713 mmHg 53%
12:00 +8°C° 0 mm 2 m/s 713 mmHg 55%
13:00 +8°C° 0 mm 2 m/s 713 mmHg 58%
14:00 +9°C° 0 mm 2 m/s 712 mmHg 60%
15:00 +8°C° 0 mm 1 m/s 712 mmHg 61%
16:00 +7°C° 0 mm 1 m/s 712 mmHg 61%
17:00 +5°C° 0 mm 1 m/s 711 mmHg 62%
18:00 +5°C° 0 mm 1 m/s 712 mmHg 62%
19:00 +4°C° 0 mm 1 m/s 712 mmHg 62%
20:00 +4°C° 0 mm 1 m/s 713 mmHg 62%
21:00 +3°C° 0 mm 2 m/s 714 mmHg 64%
22:00 +3°C° 0 mm 2 m/s 714 mmHg 65%
23:00 +2°C° 0 mm 3 m/s 715 mmHg 66%

1 Fevereiro, Segunda-feira

Tempo Temperatura Precipitação Vento Pressão Humidade
00:00 +3°C° 0 mm 2 m/s 716 mmHg 67%
01:00 +3°C° 0 mm 2 m/s 717 mmHg 68%
02:00 +3°C° 0 mm 2 m/s 717 mmHg 70%
03:00 +3°C° 0 mm 2 m/s 717 mmHg 71%
04:00 +4°C° 0 mm 1 m/s 718 mmHg 72%
05:00 +4°C° 0 mm 1 m/s 718 mmHg 74%
06:00 +4°C° 0 mm 1 m/s 718 mmHg 73%
07:00 +3°C° 0 mm 2 m/s 719 mmHg 73%
08:00 +2°C° 0 mm 2 m/s 719 mmHg 73%
09:00 +4°C° 0 mm 2 m/s 719 mmHg 73%
10:00 +6°C° 0 mm 1 m/s 720 mmHg 74%
11:00 +7°C° 0 mm 1 m/s 720 mmHg 74%
12:00 +8°C° 0 mm 1 m/s 720 mmHg 74%
13:00 +8°C° 0 mm 1 m/s 720 mmHg 75%
14:00 +9°C° 0 mm 1 m/s 720 mmHg 75%
15:00 +8°C° 0 mm 1 m/s 720 mmHg 78%
16:00 +7°C° 0 mm 1 m/s 720 mmHg 82%
17:00 +6°C° 0 mm 1 m/s 720 mmHg 85%
18:00 +6°C° 0 mm 1 m/s 720 mmHg 83%
19:00 +5°C° 0 mm 1 m/s 721 mmHg 81%
20:00 +5°C° 0 mm 1 m/s 721 mmHg 79%
21:00 +5°C° 0 mm 1 m/s 721 mmHg 80%
22:00 +5°C° 0 mm 1 m/s 721 mmHg 80%
23:00 +4°C° 0 mm 1 m/s 721 mmHg 81%
Mostrar mais